When you browse on this site, cookies collect data to enhance your experience and personalize the content and advertising you see.
Visit our Privacy Policy to learn more. By continuing to use the site, you agree to this use of cookies and data.
  • In Österreich
  • Länderverzeichnis
  • Für 7 Tage
  • Wassertemperatur
  • Wetterkarte
  • News
  • Widgets
  • user-avatar
    Anmelden

    Stündliche Wetter Goldehe Sande

    Heute, 18 Oktober, Freitag

    Zeit Temperatur Niederschläge Wind Luftdruck Luftfeuchtigkeit
    00:00 +15°C° 0 mm 0 m/S 763 mmHg 87%
    01:00 +16°C° 0 mm 1 m/S 763 mmHg 87%
    02:00 +16°C° 0 mm 1 m/S 763 mmHg 84%
    03:00 +16°C° 0 mm 1 m/S 763 mmHg 83%
    04:00 +15°C° 0 mm 2 m/S 763 mmHg 81%
    05:00 +15°C° 0 mm 2 m/S 763 mmHg 80%
    06:00 +16°C° 0 mm 1 m/S 763 mmHg 76%
    07:00 +18°C° 0 mm 1 m/S 763 mmHg 73%
    08:00 +18°C° 0 mm 1 m/S 763 mmHg 69%
    09:00 +19°C° 0 mm 1 m/S 763 mmHg 64%
    10:00 +19°C° 0 mm 0 m/S 763 mmHg 58%
    11:00 +20°C° 0 mm 0 m/S 763 mmHg 53%
    12:00 +20°C° 0 mm 0 m/S 763 mmHg 53%
    13:00 +23°C° 0 mm 1 m/S 763 mmHg 53%
    14:00 +23°C° 0 mm 1 m/S 762 mmHg 53%
    15:00 +22°C° 0 mm 1 m/S 762 mmHg 59%
    16:00 +21°C° 0 mm 1 m/S 762 mmHg 64%
    17:00 +20°C° 0 mm 1 m/S 762 mmHg 69%
    18:00 +18°C° 0 mm 2 m/S 762 mmHg 72%
    19:00 +18°C° 0 mm 2 m/S 762 mmHg 76%
    20:00 +17°C° 0 mm 2 m/S 762 mmHg 79%
    21:00 +18°C° 0 mm 1 m/S 762 mmHg 80%
    22:00 +18°C° 0 mm 1 m/S 762 mmHg 81%
    23:00 +18°C° 0 mm 1 m/S 762 mmHg 83%

    Morgen, 19 Oktober, Samstag

    Zeit Temperatur Niederschläge Wind Luftdruck Luftfeuchtigkeit
    00:00 +16°C° 0 mm 1 m/S 762 mmHg 83%
    01:00 +16°C° 0 mm 1 m/S 762 mmHg 84%
    02:00 +16°C° 0 mm 1 m/S 762 mmHg 84%
    03:00 +16°C° 0 mm 1 m/S 762 mmHg 84%
    04:00 +15°C° 0 mm 0 m/S 762 mmHg 83%
    05:00 +15°C° 0 mm 0 m/S 762 mmHg 83%
    06:00 +16°C° 0 mm 1 m/S 763 mmHg 81%
    07:00 +18°C° 0 mm 1 m/S 763 mmHg 80%
    08:00 +18°C° 0 mm 1 m/S 763 mmHg 78%
    09:00 +20°C° 0 mm 1 m/S 763 mmHg 72%
    10:00 +21°C° 0 mm 1 m/S 763 mmHg 67%
    11:00 +22°C° 0 mm 1 m/S 763 mmHg 61%
    12:00 +22°C° 0 mm 1 m/S 763 mmHg 61%
    13:00 +22°C° 0 mm 1 m/S 763 mmHg 60%
    14:00 +23°C° 0 mm 2 m/S 763 mmHg 59%
    15:00 +21°C° 0 mm 2 m/S 763 mmHg 64%
    16:00 +20°C° 0 mm 2 m/S 762 mmHg 68%
    17:00 +19°C° 0 mm 2 m/S 762 mmHg 73%
    18:00 +18°C° 0 mm 2 m/S 763 mmHg 75%
    19:00 +18°C° 0 mm 2 m/S 763 mmHg 78%
    20:00 +17°C° 0 mm 2 m/S 763 mmHg 81%
    21:00 +17°C° 0 mm 2 m/S 763 mmHg 81%
    22:00 +17°C° 0 mm 2 m/S 764 mmHg 82%
    23:00 +17°C° 0 mm 2 m/S 764 mmHg 83%

    übermorgen, 20 Oktober, Sonntag

    Zeit Temperatur Niederschläge Wind Luftdruck Luftfeuchtigkeit
    00:00 +17°C° 0 mm 2 m/S 764 mmHg 83%
    01:00 +16°C° 0 mm 1 m/S 764 mmHg 84%
    02:00 +16°C° 0 mm 1 m/S 764 mmHg 84%
    03:00 +16°C° 0 mm 1 m/S 764 mmHg 84%
    04:00 +16°C° 0 mm 1 m/S 764 mmHg 84%
    05:00 +16°C° 0 mm 1 m/S 764 mmHg 84%
    06:00 +16°C° 0 mm 1 m/S 764 mmHg 82%
    07:00 +18°C° 0 mm 1 m/S 764 mmHg 80%
    08:00 +19°C° 0 mm 1 m/S 764 mmHg 78%
    09:00 +19°C° 0 mm 2 m/S 765 mmHg 71%
    10:00 +20°C° 0 mm 2 m/S 765 mmHg 65%
    11:00 +21°C° 0 mm 2 m/S 765 mmHg 59%
    12:00 +21°C° 0 mm 2 m/S 765 mmHg 58%
    13:00 +21°C° 0 mm 2 m/S 764 mmHg 56%
    14:00 +23°C° 0 mm 1 m/S 764 mmHg 55%
    15:00 +22°C° 0 mm 1 m/S 764 mmHg 60%
    16:00 +21°C° 0 mm 1 m/S 764 mmHg 64%
    17:00 +19°C° 0 mm 2 m/S 764 mmHg 69%
    18:00 +18°C° 0 mm 2 m/S 764 mmHg 72%
    19:00 +18°C° 0 mm 2 m/S 764 mmHg 75%
    20:00 +17°C° 0 mm 2 m/S 765 mmHg 78%
    21:00 +18°C° 0 mm 1 m/S 765 mmHg 79%
    22:00 +18°C° 0 mm 1 m/S 765 mmHg 79%
    23:00 +16°C° 0 mm 1 m/S 765 mmHg 80%

    21 Oktober, Montag

    Zeit Temperatur Niederschläge Wind Luftdruck Luftfeuchtigkeit
    00:00 +16°C° 0 mm 1 m/S 765 mmHg 80%
    01:00 +16°C° 0 mm 1 m/S 765 mmHg 80%
    02:00 +15°C° 0 mm 0 m/S 765 mmHg 81%
    03:00 +15°C° 0 mm 0 m/S 765 mmHg 81%
    04:00 +15°C° 0 mm 1 m/S 765 mmHg 81%
    05:00 +15°C° 0 mm 1 m/S 765 mmHg 81%
    06:00 +16°C° 0 mm 1 m/S 765 mmHg 78%
    07:00 +18°C° 0 mm 1 m/S 765 mmHg 75%
    08:00 +18°C° 0 mm 1 m/S 765 mmHg 72%
    09:00 +20°C° 0 mm 1 m/S 765 mmHg 65%
    10:00 +21°C° 0 mm 1 m/S 766 mmHg 59%
    11:00 +23°C° 0 mm 1 m/S 766 mmHg 53%
    12:00 +23°C° 0 mm 1 m/S 765 mmHg 52%
    13:00 +23°C° 0 mm 1 m/S 765 mmHg 51%
    14:00 +23°C° 0 mm 1 m/S 765 mmHg 50%
    15:00 +22°C° 0 mm 1 m/S 765 mmHg 55%
    16:00 +21°C° 0 mm 1 m/S 765 mmHg 60%
    17:00 +20°C° 0 mm 1 m/S 765 mmHg 65%
    18:00 +20°C° 0 mm 1 m/S 765 mmHg 67%
    19:00 +19°C° 0 mm 1 m/S 765 mmHg 70%
    20:00 +18°C° 0 mm 1 m/S 765 mmHg 72%
    21:00 +18°C° 0 mm 1 m/S 765 mmHg 72%
    22:00 +18°C° 0 mm 1 m/S 765 mmHg 72%
    23:00 +16°C° 0 mm 0 m/S 765 mmHg 73%

    22 Oktober, Dienstag

    Zeit Temperatur Niederschläge Wind Luftdruck Luftfeuchtigkeit
    00:00 +16°C° 0 mm 0 m/S 765 mmHg 73%
    01:00 +16°C° 0 mm 1 m/S 765 mmHg 73%
    02:00 +16°C° 0 mm 1 m/S 765 mmHg 73%
    03:00 +16°C° 0 mm 1 m/S 765 mmHg 73%
    04:00 +16°C° 0 mm 1 m/S 765 mmHg 72%
    05:00 +16°C° 0 mm 1 m/S 765 mmHg 71%
    06:00 +18°C° 0 mm 1 m/S 765 mmHg 68%
    07:00 +19°C° 0 mm 1 m/S 765 mmHg 64%
    08:00 +19°C° 0 mm 1 m/S 765 mmHg 61%
    09:00 +21°C° 0 mm 1 m/S 765 mmHg 56%
    10:00 +22°C° 0 mm 1 m/S 765 mmHg 52%
    11:00 +24°C° 0 mm 1 m/S 765 mmHg 47%
    12:00 +24°C° 0 mm 1 m/S 765 mmHg 46%
    13:00 +24°C° 0 mm 1 m/S 765 mmHg 45%
    14:00 +25°C° 0 mm 2 m/S 764 mmHg 45%
    15:00 +23°C° 0 mm 2 m/S 764 mmHg 50%
    16:00 +21°C° 0 mm 2 m/S 764 mmHg 56%
    17:00 +20°C° 0 mm 2 m/S 764 mmHg 62%
    18:00 +19°C° 0 mm 2 m/S 764 mmHg 63%
    19:00 +19°C° 0 mm 2 m/S 764 mmHg 65%
    20:00 +18°C° 0 mm 2 m/S 765 mmHg 66%
    21:00 +18°C° 0 mm 2 m/S 765 mmHg 66%
    22:00 +18°C° 0 mm 2 m/S 765 mmHg 66%
    23:00 +17°C° 0 mm 2 m/S 765 mmHg 65%

    23 Oktober, Mittwoch

    Zeit Temperatur Niederschläge Wind Luftdruck Luftfeuchtigkeit
    00:00 +17°C° 0 mm 2 m/S 765 mmHg 64%
    01:00 +17°C° 0 mm 3 m/S 765 mmHg 64%
    02:00 +17°C° 0 mm 3 m/S 765 mmHg 63%
    03:00 +17°C° 0 mm 3 m/S 765 mmHg 63%
    04:00 +15°C° 0 mm 4 m/S 765 mmHg 63%
    05:00 +15°C° 0 mm 4 m/S 765 mmHg 63%
    06:00 +17°C° 0 mm 4 m/S 765 mmHg 65%
    07:00 +16°C° 0 mm 5 m/S 765 mmHg 68%
    08:00 +16°C° 0 mm 5 m/S 766 mmHg 70%
    09:00 +19°C° 0 mm 5 m/S 766 mmHg 69%
    10:00 +20°C° 0 mm 6 m/S 766 mmHg 67%
    11:00 +21°C° 0 mm 6 m/S 766 mmHg 65%
    12:00 +21°C° 0 mm 7 m/S 766 mmHg 65%
    13:00 +21°C° 0 mm 7 m/S 765 mmHg 65%
    14:00 +21°C° 0 mm 7 m/S 765 mmHg 65%
    15:00 +20°C° 0 mm 7 m/S 765 mmHg 69%
    16:00 +18°C° 0 mm 7 m/S 765 mmHg 73%
    17:00 +17°C° 0 mm 7 m/S 765 mmHg 77%
    18:00 +17°C° 0 mm 7 m/S 765 mmHg 80%
    19:00 +16°C° 0 mm 6 m/S 765 mmHg 83%
    20:00 +15°C° 0 mm 6 m/S 766 mmHg 86%
    21:00 +15°C° 0 mm 6 m/S 766 mmHg 86%
    22:00 +15°C° 0 mm 5 m/S 766 mmHg 86%
    23:00 +14°C° 0 mm 5 m/S 766 mmHg 87%
    Mehr zeigen